Řízení letového provozu České republiky  
Aktualizace dat:  25.01.2022 10:28:29 UTC English version
   METEO Zobrazení stránky:  25.01.2022 10:29:25 UTC  
vysvětlivky
METAR EDDB 251020Z 28010KT 6000 -DZ BKN008 04/03 Q1031 TEMPO 4500 -DZ=
METAR EDDC 251020Z 31007KT 280V340 6000 -DZ FEW004 BKN006 02/02 Q1031 TEMPO BKN004=
METAR EDDE 251020Z 26005KT 230V300 5000 -DZ BR OVC007 01/00 Q1032 TEMPO 4000 -DZ OVC005=
METAR EDDF 251020Z 16003KT 130V190 9999 FEW005 OVC012 00/M01 Q1034 NOSIG=
METAR EDDM 251020Z 27005KT 210V290 1500 BR OVC001 M02/M02 Q1032 BECMG 3000 BKN002=
METAR EDDN 251020Z 11005KT 0900 R28/1500N FZFG OVC001 M01/M01 Q1032 NOSIG=
METAR EDDP 251020Z 32005KT 9999 -DZ BKN011 03/01 Q1033 TEMPO BKN015=
METAR EDQM 251020Z 00000KT 3400 BR OVC002 M01/M01 Q1031=
METAR EPBY 251000Z 28011KT 9000 OVC004 03/02 Q1026=
METAR EPGD 251000Z 30011KT 9999 -RA BKN005 BKN007 04/03 Q1024=
METAR EPKK 251000Z 24007KT 7000 -SG FEW007 BKN010 00/M01 Q1028=
METAR EPKT 251000Z 26007KT 2700 -RASN BR SCT003 BKN004 00/00 Q1028=
METAR EPLL 251000Z 26010KT 6000 -DZ OVC003 01/00 Q1026=
METAR EPPO 251000Z 29009KT 9999 BKN006 03/02 Q1028=
METAR EPRZ 251000Z 25011KT 3000 BR OVC004 00/M00 Q1026=
METAR EPWA 251000Z 27010KT 6000 OVC004 02/01 Q1025 BECMG BKN005=
METAR EPWR 251000Z 33008KT 9999 -RA FEW007 SCT009 BKN025 03/02 Q1030 =
METAR LHBP 251000Z 22004KT 200V260 CAVOK M03/M06 Q1031 NOSIG=
METAR LHSM 250945Z AUTO 00000KT 6000 OVC028 M02/M04 Q1033 NOSIG=
METAR LKBC NIL
METAR LKCV 251000Z 26008KT 9999 BKN015 OVC022 02/00 Q1031 NOSIG RMK WHT WHT=
METAR LKKB 251000Z 24008KT 8000 SCT006 OVC018 02/01 Q1031 NOSIG RMK WHT WHT=
METAR LKKU 251000Z 20004KT 3500 -SN BR SCT004 OVC009 M00/M01 Q1031=
METAR LKKV 251000Z 27003KT 230V310 9999 OVC007 M01/M02 Q1030 RMK REG QNH 1027=
METAR LKLN 251030Z AUTO 29003KT 250V330 9999 OVC010 01/M01 Q1032=
METAR LKMT 251000Z 23010KT 4500 BR BKN028 OVC041 00/M01 Q1030 NOSIG RMK REG QNH 1027=
METAR LKNA 251000Z 27007KT 8000 -DZ OVC008 01/M01 Q1030 NOSIG RMK GRN GRN=
METAR LKPD 251030Z 26010KT 7000 -DZ SCT006 OVC010 03/01 Q1030 NOSIG RMK GRN GRN=
SPECI LKPJ 251017Z AUTO 07003KT 1600 -RA BR OVC003/// 00/M00 Q1030=
METAR LKPR 251000Z 24008KT 9999 FEW005 BKN011 OVC014 01/01 Q1031 NOSIG RMK REG QNH 1027=
METAR LKTB 251000Z 21003KT 2700 BR OVC021 01/M01 Q1031 NOSIG RMK REG QNH 1027=
METAR COR LKVO 251010Z 26007KT 9000 SCT008 OVC018 03/01 Q1031=
METAR LOWI 251020Z 25003KT 200V280 CAVOK 01/M04 Q1032 NOSIG=
METAR LOWL 251020Z 25005KT 5000 BR FEW003 BKN004 M00/M00 Q1032 BECMG SCT004 BKN006=
METAR LOWS 251020Z 29004KT 250V330 2000 BR BKN002 M02/M02 Q1032 TEMPO 3000 BR BKN005=
METAR LOWW 251020Z 30013KT 9999 FEW012 BKN032 03/00 Q1031 NOSIG=
METAR LZIB 251000Z 28007KT 7000 FEW009 BKN038 02/M00 Q1031 NOSIG=
METAR LZKZ 251000Z 16003KT 130V240 9999 BKN034 M04/M09 Q1030 NOSIG=
METAR LZMC 250900Z 19004KT 3500 -SN BR FEW003 OVC006 M01/M02 Q1032=
METAR LZPP 251000Z VRB01KT 3000 -SN BR OVC014 M01/M02 Q1031=
METAR LZSL 250900Z 00000KT 9999 SCT050 M05/M09 Q1030=
METAR LZTT 251000Z 26013KT 9999 FEW050 M02/M07 Q1026 NOSIG=
METAR LZZI 251000Z VRB01KT 9000 SCT013 OVC040 M02/M06 Q1030=